Location: Épénancourt
(49.8253°N, 2.9300°E)
Time: 01:34:07
(UTC+00:00)

Daily predictions for brighter satellites

Satellite Brightness Start Highest point End
(mag) Time Altitude Azimuth Time Altitude Azimuth Time Altitude Azimuth
USA 59 Rocket 3.1 03:34:44 11° E 03:34:44 11° E 03:34:53 10° ESE
NOSS 3-1 (C) 4.5 03:34:05 48° NNE 03:34:09 48° NE 03:42:08 10° ESE
ACS3 Solar Sail 4.2 03:40:16 10° N 03:40:27 11° N 03:40:27 11° N
SL-16 R/B 3.9 03:46:48 25° NNE 03:47:37 25° NE 03:52:16 10° E
Cosmos 2082 Rocket 3.7 03:49:32 26° SE 03:51:22 32° ESE 03:56:17 10° NE
COSMOS 2455 3.3 03:58:09 56° ENE 03:58:09 56° ENE 04:03:25 10° SE
ATLAS 3B R/B 4.2 03:59:03 29° N 03:59:42 29° N 04:06:22 10° ENE
NOSS 3-4 (A) 4.4 04:02:31 35° NNE 04:02:31 35° NNE 04:06:09 10° NE
NOSS 3-4 (C) 4.4 04:02:40 35° NNE 04:02:40 35° NNE 04:06:19 10° NE
Cosmos 1898 Rocket 4.5 04:02:27 44° ENE 04:02:27 44° ENE 04:06:55 10° SE
Cosmos 1980 Rocket 3.5 04:14:14 30° SSE 04:14:14 30° SSE 04:16:56 10° SSE
Cosmos 2369 3.9 04:16:15 69° E 04:16:15 69° E 04:21:30 10° SE
COSMO-SKYMED 1 4.2 04:18:35 10° SE 04:22:09 29° ENE 04:22:50 28° NE
Aureole 1 Rocket 4.2 04:20:44 56° NNW 04:22:30 87° ENE 04:30:01 10° SSE
ADEOS Rocket 4.5 04:16:09 10° N 04:20:30 32° NNW 04:20:30 32° NNW
Cosmos 2180 Rocket 4.4 04:23:51 47° N 04:25:50 86° E 04:32:10 10° S
Cosmos 1937 Rocket 4.1 04:25:55 48° NNE 04:26:40 52° ENE 04:31:39 10° SE
Cosmos 909 Rocket 4.5 04:28:18 53° NNW 04:28:18 53° NNW 04:34:24 10° NE
Cosmos 372 Rocket 4.2 04:33:38 60° SSE 04:33:38 60° SSE 04:37:45 10° SSE
Celestis-02/Orion 38 4.5 04:30:28 10° NNE 04:35:18 81° NE 04:35:18 81° NE
Cosmos 2333 Rocket 3.4 04:33:56 24° N 04:36:46 39° NE 04:42:08 10° ESE
NOSS 3-1 (A) 4.4 04:37:46 34° NNW 04:40:48 55° NE 04:49:04 10° ESE
Cosmos 1606 Rocket 3.8 04:43:12 69° ESE 04:43:12 69° ESE 04:47:21 10° SSE
Cosmos 2360 Rocket 3.7 04:40:11 18° N 04:43:27 31° NE 04:48:25 10° ESE
Cosmos 2142 Rocket 4.4 04:47:06 54° NW 04:48:16 64° W 04:54:23 10° S
Cosmos 540 Rocket 4.4 04:56:48 33° N 04:56:48 33° N 04:59:58 10° NNE
USA 234 3.7 04:49:33 10° ENE 04:55:47 48° N 04:57:47 37° NW
Helios 1A Rocket 3.4 04:53:02 10° SSE 04:55:47 46° ESE 04:55:47 46° ESE
SeaSat 1 4.1 04:56:19 10° NNE 04:58:20 20° N 04:58:20 20° N
Cosmos 2219 Rocket 3.9 04:58:08 13° N 05:02:14 28° NE 05:07:04 10° ESE
SL-4 R/B 2.6 05:03:15 39° ENE 05:03:15 39° ENE 05:05:28 10° E
ATLAS 5 CENTAUR R/B 3.4 05:05:55 13° NNE 05:05:55 13° NNE 05:06:29 10° NNE
Cosmos 2322 Rocket 3.1 05:01:43 19° NNW 05:05:39 46° NE 05:11:06 10° SE
Cosmos 1726 Rocket 3.4 05:08:07 45° NNW 05:09:25 86° WSW 05:13:39 10° S
Meteor 2-3 Rocket 4.0 05:05:33 10° S 05:11:15 72° E 05:16:56 10° NNE
CZ-4 R/B 3.7 05:10:25 10° NNE 05:15:07 90° SE 05:19:43 10° SSW
Cosmos 489 Rocket 4.4 05:08:58 10° SSW 05:15:16 87° ESE 05:21:35 10° NNE
Nadezhda 4 Rocket 3.9 05:10:00 10° SSW 05:16:17 72° W 05:22:35 10° N
NOSS 2-1 (D) 4.0 05:17:47 38° SW 05:17:47 38° SW 05:21:39 10° SSE
Cosmos 1428 Rocket 4.4 05:11:09 10° S 05:17:23 82° W 05:23:43 10° N
Cosmos 2237 4.2 05:15:45 39° NW 05:17:43 59° WSW 05:23:17 10° S
CZ-2C R/B 4.2 05:14:37 10° N 05:16:11 18° NNW 05:16:11 18° NNW
USA 59 Rocket 0.7 05:20:26 34° SW 05:20:26 34° SW 05:24:18 10° SSE
Cosmos 841 Rocket 3.4 05:18:00 10° SSW 05:23:14 79° WNW 05:28:32 10° NNE
COSMOS 2406 3.2 05:18:05 10° SSW 05:23:46 83° ESE 05:29:29 10° NNE
NOSS 2-1 (E) 3.7 05:25:12 42° SW 05:25:14 42° SW 05:29:32 10° SSE
NOSS 3-1 (C) 4.1 05:21:26 30° NW 05:25:21 63° SW 05:34:01 10° SSE
Cosmos 1833 Rocket 4.1 05:28:01 20° NNW 05:28:01 20° NNW 05:31:30 10° N
Cosmos 1892 Rocket 3.4 05:25:50 10° S 05:30:11 86° W 05:34:38 10° N
Cosmos 2195 Rocket 4.4 05:24:26 10° SSW 05:30:42 81° W 05:37:05 10° N
SL-16 R/B 2.1 05:28:40 23° NNW 05:32:20 78° WSW 05:37:59 10° SSE
Cosmos 2082 Rocket 2.3 05:31:29 20° WSW 05:35:13 50° NW 05:40:42 10° NNE
IRS-1D 3.6 05:37:24 10° N 05:42:12 49° WNW 05:47:04 10° SW
COSMOS 2455 3.6 05:41:19 27° W 05:43:04 31° WSW 05:48:16 10° S
Cosmos 1898 Rocket 4.3 05:42:42 28° W 05:43:42 30° W 05:48:13 10° SSW
Meteor 2-20 4.4 05:39:07 10° NNW 05:45:10 64° W 05:51:10 10° S
NOSS 2-1 (C) 4.5 05:44:49 25° WSW 05:45:13 25° SW 05:49:01 10° S
Orbus 7S? 2.8 05:47:32 39° NNW 05:48:16 57° NNE 05:50:57 10° ESE
Cosmos 405 Rocket 4.0 05:45:51 10° SSE 05:48:52 36° E 05:51:55 10° NNE
NOSS 3-4 (A) 4.5 05:49:57 20° NW 05:52:17 26° NNW 05:57:34 10° NE
NOSS 3-4 (C) 4.5 05:50:06 20° NW 05:52:25 26° NNW 05:57:43 10° NE
ATLAS 3B R/B 3.9 05:46:18 14° NW 05:52:37 41° NNE 05:59:47 10° E
Cosmos-2242 2.9 05:49:33 10° NNW 05:53:47 66° W 05:57:56 10° S
Cosmos 1980 Rocket 4.1 05:56:02 12° WSW 05:56:02 12° WSW 05:56:51 10° WSW
Cosmos 2278 3.7 05:51:02 17° NW 05:55:25 61° WSW 06:00:57 10° SSE
COSMO-SKYMED 1 3.2 05:53:44 10° SSW 05:57:25 31° W 05:59:09 23° NW
Cosmos 2058 Rocket 3.2 05:56:34 10° NNW 06:00:55 52° W 06:05:12 10° S
Cosmos 1484 Rocket 2.3 05:57:30 10° N 06:00:55 65° WNW 06:04:16 10° SSW
Cosmos 1627 Rocket 4.5 05:57:15 10° SSW 06:03:16 60° WNW 06:09:22 10° N
Meteor 2-2 Rocket 4.3 05:58:35 10° NNW 06:04:10 59° W 06:09:49 10° S
Cosmos 1346 Rocket 4.5 06:07:59 15° NNW 06:07:59 15° NNW 06:09:02 10° NNW
Okean 1 3.2 06:03:39 13° NNW 06:06:41 50° W 06:10:08 10° S
Meteor 2-20 Rocket 4.3 06:01:40 10° NNW 06:07:21 59° W 06:12:56 10° S
Cosmos 1937 Rocket 4.5 06:06:02 19° WNW 06:08:12 25° W 06:12:20 10° SSW
ARIANE 5 R/B 3.6 06:07:55 10° NNE 06:13:00 51° E 06:18:04 10° S
Cosmos 2285 Rocket 4.0 06:07:01 10° NNW 06:13:25 82° WSW 06:19:49 10° SSE
ATLAS 2AS CENTAUR R/B 4.4 06:08:56 10° S 06:15:19 38° ESE 06:21:34 10° NE
SL-08 ROCKET BODY 4.4 06:10:50 10° S 06:16:40 86° E 06:22:34 10° N
SL-08 R/B 4.4 06:14:01 10° SE 06:18:21 42° ENE 06:22:46 10° N
IRIDIUM 104 4.3 06:13:19 10° S 06:18:32 77° W 06:23:47 10° N
Cosmos 2333 Rocket 2.6 06:15:58 11° NW 06:21:11 46° WSW 06:26:37 10° S
SAR-Lupe-4 4.2 06:19:46 10° NNE 06:23:18 60° ESE 06:26:49 10° S
SMAP 3.1 06:19:35 10° NNE 06:24:17 87° ESE 06:28:57 10° SSW
IRIDIUM 114 4.3 06:22:31 10° SSW 06:27:41 64° W 06:32:54 10° N
Cosmos 2360 Rocket 2.3 06:22:15 10° NW 06:27:46 58° WSW 06:33:14 10° S
Helios 1A Rocket 4.4 06:27:45 10° WSW 06:29:11 12° W 06:29:20 12° W
Landsat 7 3.9 06:25:33 10° NNE 06:30:14 82° ESE 06:34:54 10° SSW
NOSS 3-1 (A) 4.4 06:25:10 11° NW 06:31:54 54° WSW 06:40:26 10° SSE
CBERS-1 4.1 06:27:54 10° N 06:32:54 57° WNW 06:37:53 10° SW
Cosmos 2026 Rocket 4.4 06:27:26 10° SW 06:32:57 36° WNW 06:38:33 10° N
IGS 5A 3.8 06:30:01 10° N 06:33:46 38° WNW 06:37:29 10° SW
Cosmos 1814 Rocket 4.0 06:29:13 10° SSW 06:34:26 76° WNW 06:39:46 10° NNE
BREEZE-M DEB (TANK) 3.1 06:34:38 11° W 06:36:06 27° SSW 06:38:24 10° SE
Cosmos 2237 Rocket 3.9 06:31:48 10° NNW 06:36:24 25° NE 06:41:00 10° E
IRIDIUM 103 4.5 06:31:47 10° SSW 06:36:53 54° W 06:42:02 10° N
USA 234 3.5 06:31:50 10° E 06:38:18 64° NNE 06:44:48 10° WNW
SL-4 R/B 1.5 06:36:58 12° WNW 06:39:57 67° SSW 06:43:04 10° ESE
Cosmos 1758 Rocket 3.6 06:36:25 10° SSW 06:40:46 58° WNW 06:45:09 10° N
Cosmos 1733 2.5 06:40:00 10° SW 06:41:35 23° WNW 06:43:11 10° NNW
Cosmos 1743 2.2 06:38:36 10° SSW 06:41:49 65° W 06:45:04 10° N
IRS-1C 4.3 06:36:51 10° NNE 06:42:13 82° ESE 06:47:32 10° SSW
Thor Agena Rocket 3.5 06:40:25 10° N 06:45:26 63° WNW 06:50:23 10° SSW
BREEZE-M DEB (TANK) 3.3 06:43:05 10° W 06:45:56 85° S 06:54:07 10° E
Cosmos 2219 Rocket 2.3 06:41:01 10° NNW 06:46:40 67° WSW 06:52:13 10° SSE
Cosmos 192 4.3 06:42:03 10° NNW 06:46:59 75° WSW 06:51:52 10° SSE
ATLAS 5 CENTAUR R/B 3.3 06:46:42 10° NNW 06:47:31 11° N 06:48:21 10° N
Cosmos 2322 Rocket 2.9 06:44:25 10° NW 06:49:35 36° WSW 06:54:42 10° S
S3M 4.0 06:44:04 10° N 06:50:18 81° W 06:56:26 10° S
USA 229 4.3 06:48:05 10° NW 06:55:21 67° NE 07:03:22 10° SE
USA 229 DEB 4.3 06:48:11 10° NW 06:55:26 67° NE 07:03:27 10° SE
Cosmos 2322 4.1 06:49:50 10° NNW 06:55:30 67° ENE 07:01:08 10° SE
SJ-12 3.8 06:53:52 10° N 06:57:36 56° WNW 07:01:20 10° SSW
SKYMED 3 4.4 06:54:49 10° S 06:58:49 77° WSW 07:02:51 10° NNW
Resurs 01 Rocket 4.3 06:55:59 10° NE 06:59:29 23° E 07:02:57 10° SE
YAOGAN 1 3.6 06:56:24 10° NNE 07:00:35 50° E 07:04:43 10° S
